User: anonymous   Login
Location: Unspecified
(0.0000°N, 0.0000°E)
Time: 00:16:06
(UTC+00:00)
Language:

Kosmos-2190 - Orbit

View from above orbital plane
View from above orbital plane
View from above satellite
View from above satellite

Ground track
Ground track

The orbit data is extracted from the following two-line orbital elements,

1 21979U 92030D   18201.35895199 -.00000017 +00000-0 -85204-5 0  9997
2 21979 074.0028 118.1918 0031312 139.1009 338.0023 12.52238216194356
Epoch (UTC): 20 July 2018 08:36:53
Eccentricity: 0.0031312
inclination: 74.0028°
perigee height: 1430 km
apogee height: 1479 km
right ascension of ascending node: 118.1918°
argument of perigee: 139.1009°
revolutions per day: 12.52238216
mean anomaly at epoch: 338.0023°
orbit number at epoch: 19435

The dashed part of the orbit path shows where the satellite is in the earth's shadow,  

DLR